KE8AFF-13 Weather Reports


Display with metric or nautical units.
time (UTC)temp
F
wind
direction
speed
MPH
gust
MPH
rain 1hr
in
rain 24hr
in
rain mn
in
humidity
%
barometer
mb
20260504002116 50 224 2.0 5.0 0.00 0.00 0.00 72 1012.8
20260504001608 50 200 4.0 8.0 0.00 0.00 0.00 72 1012.6
20260504001103 50 214 7.0 10.0 0.00 0.00 0.00 71 1012.8
20260504000601 51 219 5.0 8.0 0.00 0.00 0.00 71 1012.9
20260504000059 51 215 10.0 14.0 0.00 0.00 0.00 70 1012.9
20260503235556 51 225 8.0 15.0 0.00 0.00 0.00 69 1012.9
20260503235053 51 269 8.0 11.0 0.00 0.00 0.00 69 1013.2
20260503234551 51 236 12.0 13.0 0.00 0.00 0.00 68 1013.1
20260503234049 51 296 10.0 13.0 0.00 0.00 0.00 67 1013.3
20260503233545 52 217 11.0 14.0 0.00 0.00 0.00 66 1013.5
20260503233041 52 240 10.0 25.0 0.00 0.00 0.00 65 1013.1
20260503232539 52 223 11.0 20.0 0.00 0.00 0.00 63 1013.3
20260503232036 53 264 12.0 14.0 0.00 0.00 0.00 62 1013.3
20260503231534 53 288 13.0 22.0 0.00 0.00 0.00 62 1013.2
20260503231030 53 271 15.0 20.0 0.00 0.00 0.00 60 1012.9
20260503230526 55 256 12.0 15.0 0.00 0.00 0.00 58 1012.8
20260503230024 56 248 7.0 10.0 0.00 0.00 0.00 55 1012.8
20260503225521 58 273 8.0 13.0 0.00 0.00 0.00 44 1012.6
20260503225015 58 214 4.0 7.0 0.00 0.00 0.00 44 1012.4
20260503224513 58 191 3.0 18.0 0.00 0.00 0.00 45 1012.7
20260503224006 58 242 10.0 18.0 0.00 0.00 0.00 44 1012.6
20260503223503 59 271 7.0 14.0 0.00 0.00 0.00 43 1012.6
20260503222958 59 210 9.0 16.0 0.00 0.00 0.00 42 1012.5
20260503222457 59 239 3.0 9.0 0.00 0.00 0.00 42 1012.4
20260503221955 59 210 5.0 10.0 0.00 0.00 0.00 42 1012.8
20260503221453 59 266 6.0 10.0 0.00 0.00 0.00 42 1012.7
20260503220950 59 256 5.0 9.0 0.00 0.00 0.00 42 1012.4
20260503220446 59 189 9.0 13.0 0.00 0.00 0.00 41 1012.9
20260503215943 59 228 7.0 11.0 0.00 0.00 0.00 40 1012.7
20260503215440 59 250 9.0 21.0 0.00 0.00 0.00 41 1012.8
20260503214937 59 237 10.0 14.0 0.00 0.00 0.00 41 1012.8
20260503214435 59 214 5.0 11.0 0.00 0.00 0.00 43 1012.8
20260503213932 59 207 8.0 16.0 0.00 0.00 0.00 41 1012.7
20260503213430 60 204 7.0 17.0 0.00 0.00 0.00 41 1012.8
20260503212926 60 254 4.0 14.0 0.00 0.00 0.00 41 1012.9
20260503212424 60 243 5.0 13.0 0.00 0.00 0.00 40 1012.8
20260503211921 60 232 10.0 20.0 0.00 0.00 0.00 39 1012.9
20260503211418 60 220 7.0 15.0 0.00 0.00 0.00 41 1013.0
20260503210913 59 227 9.0 23.0 0.00 0.00 0.00 40 1012.9
20260503210411 59 218 12.0 20.0 0.00 0.00 0.00 40 1013.1
20260503205911 60 288 9.0 14.0 0.00 0.00 0.00 41 1013.1
20260503205409 59 223 11.0 16.0 0.00 0.00 0.00 41 1013.1
20260503204904 60 221 10.0 14.0 0.00 0.00 0.00 40 1013.0
20260503204402 60 246 12.0 16.0 0.00 0.00 0.00 41 1013.0
20260503203859 59 202 8.0 22.0 0.00 0.00 0.00 42 1013.1
20260503203356 60 216 6.0 13.0 0.00 0.00 0.00 41 1013.2
20260503202853 60 226 12.0 16.0 0.00 0.00 0.00 40 1013.3
20260503202351 60 262 6.0 15.0 0.00 0.00 0.00 40 1013.7
20260503201849 60 245 9.0 16.0 0.00 0.00 0.00 40 1013.5
20260503201346 59 225 12.0 23.0 0.00 0.00 0.00 39 1013.5
20260503200844 60 221 10.0 13.0 0.00 0.00 0.00 41 1013.6
20260503200339 60 222 8.0 15.0 0.00 0.00 0.00 40 1013.7
20260503195837 60 219 11.0 15.0 0.00 0.00 0.00 39 1013.7
20260503195333 60 234 7.0 8.0 0.00 0.00 0.00 40 1013.7
20260503194830 60 227 11.0 16.0 0.00 0.00 0.00 40 1013.9
20260503194326 60 233 13.0 17.0 0.00 0.00 0.00 40 1013.9
20260503193823 60 238 11.0 25.0 0.00 0.00 0.00 41 1013.9
20260503193319 60 229 9.0 14.0 0.00 0.00 0.00 40 1013.9
20260503192815 59 197 9.0 17.0 0.00 0.00 0.00 41 1014.1
20260503192310 60 221 7.0 13.0 0.00 0.00 0.00 42 1014.4
20260503191806 59 225 7.0 15.0 0.00 0.00 0.00 43 1014.2
20260503191303 59 226 12.0 18.0 0.00 0.00 0.00 41 1014.4
20260503190800 60 207 12.0 16.0 0.00 0.00 0.00 41 1014.6
20260503190257 59 211 7.0 15.0 0.00 0.00 0.00 41 1014.5
20260503185754 60 241 7.0 14.0 0.00 0.00 0.00 42 1014.6
20260503185250 60 238 8.0 20.0 0.00 0.00 0.00 42 1014.7
20260503184745 59 215 6.0 16.0 0.00 0.00 0.00 42 1014.8
20260503184241 59 212 8.0 18.0 0.00 0.00 0.00 42 1014.7
20260503183737 58 220 15.0 22.0 0.00 0.00 0.00 42 1015.1
20260503183235 59 245 9.0 14.0 0.00 0.00 0.00 42 1015.0
20260503182733 59 247 13.0 20.0 0.00 0.00 0.00 41 1014.9
20260503182231 59 236 11.0 15.0 0.00 0.00 0.00 41 1015.3
20260503181727 59 263 6.0 11.0 0.00 0.00 0.00 42 1015.1
20260503181219 58 232 5.0 10.0 0.00 0.00 0.00 43 1015.3
20260503180715 59 217 8.0 15.0 0.00 0.00 0.00 42 1015.4
20260503180214 59 219 6.0 17.0 0.00 0.00 0.00 42 1015.6
20260503175710 58 212 13.0 15.0 0.00 0.00 0.00 41 1015.3
20260503175208 60 205 8.0 13.0 0.00 0.00 0.00 40 1015.8
20260503174704 59 226 3.0 11.0 0.00 0.00 0.00 43 1015.5
20260503174202 59 205 11.0 14.0 0.00 0.00 0.00 42 1015.6
20260503173656 58 160 8.0 15.0 0.00 0.00 0.00 41 1015.9
20260503173153 58 240 9.0 14.0 0.00 0.00 0.00 43 1015.8
20260503172650 58 237 9.0 17.0 0.00 0.00 0.00 44 1015.8
20260503172147 58 195 9.0 10.0 0.00 0.00 0.00 44 1015.9
20260503171643 58 229 4.0 9.0 0.00 0.00 0.00 43 1016.0
20260503171141 58 225 4.0 13.0 0.00 0.00 0.00 44 1016.0
20260503170638 58 253 8.0 14.0 0.00 0.00 0.00 44 1016.1
20260503170135 58 218 10.0 15.0 0.00 0.00 0.00 43 1016.4
20260503150526 54 225 9.0 11.0 0.00 0.00 0.00 51 1018.1
20260503131419 46 248 5.0 10.0 0.00 0.00 0.00 61 1018.9
20260503130916 46 221 3.0 9.0 0.00 0.00 0.00 62 1019.0
20260503130414 46 218 5.0 13.0 0.00 0.00 0.00 60 1019.1
20260503110812 35 213 2.0 3.0 0.00 0.00 0.00 83 1018.7
20260503110309 35 202 3.0 3.0 0.00 0.00 0.00 84 1018.5
20260503100235 34 202 1.0 2.0 0.00 0.00 0.00 85 1018.2
20260503090200 35 210 1.0 2.0 0.00 0.00 0.00 82 1018.2
20260503081630 36 237 1.0 2.0 0.00 0.00 0.00 79 1017.9
20260503081127 36 233 1.0 1.0 0.00 0.00 0.00 79 1018.0
20260503080623 36 227 1.0 2.0 0.00 0.00 0.00 79 1018.1
20260503080120 36 226 1.0 2.0 0.00 0.00 0.00 79 1018.1
20260503072557 37 225 2.0 2.0 0.00 0.00 0.00 80 1017.9
20260503072054 37 184 3.0 3.0 0.00 0.00 0.00 80 1018.1
20260503071551 37 212 2.0 3.0 0.00 0.00 0.00 80 1018.1
20260503071048 37 213 2.0 2.0 0.00 0.00 0.00 80 1018.1
20260503070544 37 211 2.0 2.0 0.00 0.00 0.00 80 1017.9
20260503055003 38 216 1.0 1.0 0.00 0.00 0.00 77 1018.2
20260503054459 38 211 1.0 1.0 0.00 0.00 0.00 77 1018.3
20260503053957 39 209 1.0 2.0 0.00 0.00 0.00 77 1018.1
20260503053454 38 217 1.0 1.0 0.00 0.00 0.00 77 1018.3
20260503052951 39 212 1.0 1.0 0.00 0.00 0.00 77 1018.3
20260503052448 39 217 1.0 2.0 0.00 0.00 0.00 77 1018.0
20260503051944 39 212 1.0 2.0 0.00 0.00 0.00 78 1018.1
20260503051440 38 217 1.0 1.0 0.00 0.00 0.00 79 1018.1
20260503050938 38 221 0.0 1.0 0.00 0.00 0.00 79 1018.0
20260503050433 39 213 1.0 1.0 0.00 0.00 0.00 79 1018.1
20260503045932 38 222 2.0 2.0 0.00 0.00 0.00 79 1018.1
20260503045429 38 215 2.0 2.0 0.00 0.00 0.00 79 1018.1
20260503044925 39 214 1.0 1.0 0.00 0.00 0.00 79 1018.2
20260503044422 38 209 1.0 1.0 0.00 0.00 0.00 80 1018.0
20260503043920 38 220 0.0 0.0 0.00 0.00 0.00 79 1018.1
20260503043416 38 220 0.0 1.0 0.00 0.00 0.00 80 1018.0
20260503042913 39 217 1.0 1.0 0.00 0.00 0.00 80 1018.2
20260503042409 39 209 1.0 1.0 0.00 0.00 0.00 79 1018.1
20260503041906 39 211 1.0 1.0 0.00 0.00 0.00 79 1017.9
20260503041403 39 214 1.0 1.0 0.00 0.00 0.00 79 1017.9
20260503040900 39 210 1.0 1.0 0.00 0.00 0.00 79 1017.9
20260503040358 39 209 1.0 1.0 0.00 0.00 0.00 80 1017.9
20260503035854 39 213 1.0 1.0 0.00 0.01 0.01 80 1018.1
20260503035351 39 215 0.0 1.0 0.00 0.01 0.01 80 1018.3
20260503034849 39 215 0.0 1.0 0.00 0.01 0.01 80 1017.9
20260503034346 40 215 0.0 1.0 0.00 0.01 0.01 80 1018.2
20260503033843 40 212 0.0 1.0 0.00 0.01 0.01 80 1018.0
20260503033341 40 211 0.0 1.0 0.00 0.01 0.01 80 1018.1
20260503032838 40 211 0.0 1.0 0.00 0.01 0.01 80 1018.1
20260503032337 40 209 1.0 1.0 0.00 0.01 0.01 79 1018.2
20260503031834 40 216 0.0 0.0 0.00 0.01 0.01 81 1018.3
20260503031332 40 216 1.0 1.0 0.00 0.01 0.01 80 1018.1
20260503030828 40 212 0.0 0.0 0.00 0.01 0.01 80 1018.0
20260503030325 40 211 0.0 0.0 0.00 0.01 0.01 80 1018.1
20260503025821 40 212 0.0 0.0 0.00 0.01 0.01 79 1018.1
20260503025319 41 212 0.0 0.0 0.00 0.01 0.01 78 1018.2
20260503024815 41 211 0.0 0.0 0.00 0.01 0.01 77 1018.2
20260503024312 41 211 0.0 0.0 0.00 0.01 0.01 76 1018.3
20260503023809 41 212 0.0 0.0 0.00 0.01 0.01 76 1018.4
20260503023307 41 212 0.0 0.0 0.00 0.01 0.01 75 1018.4
20260503022803 41 210 0.0 1.0 0.00 0.01 0.01 75 1018.4
20260503022304 41 212 0.0 0.0 0.00 0.01 0.01 74 1018.3
20260503021800 41 209 0.0 1.0 0.00 0.01 0.01 74 1018.4
20260503021255 41 212 0.0 1.0 0.00 0.01 0.01 73 1018.3
20260503020754 41 218 0.0 0.0 0.00 0.01 0.01 73 1018.3
20260503020251 41 218 0.0 0.0 0.00 0.01 0.01 73 1018.3
20260503015747 41 218 0.0 0.0 0.00 0.01 0.01 72 1018.0
20260503015244 41 218 0.0 0.0 0.00 0.01 0.01 71 1018.2
20260503014740 42 218 0.0 0.0 0.00 0.01 0.01 71 1018.0
20260503014238 42 218 0.0 0.0 0.00 0.01 0.01 70 1017.9
20260503013735 42 217 0.0 0.0 0.00 0.01 0.01 70 1018.1
20260503013233 42 217 0.0 0.0 0.00 0.01 0.01 68 1018.0
20260503012730 42 219 0.0 1.0 0.00 0.01 0.01 68 1017.8
20260503012227 42 215 0.0 0.0 0.00 0.01 0.01 68 1017.9
20260503011723 43 219 0.0 1.0 0.00 0.01 0.01 68 1017.8
20260503011220 43 216 1.0 1.0 0.00 0.01 0.01 68 1018.1
20260503010716 43 219 0.0 1.0 0.00 0.01 0.01 66 1017.9
20260503010214 43 217 0.0 1.0 0.00 0.01 0.01 68 1017.9
20260503005711 43 222 0.0 1.0 0.00 0.01 0.01 67 1017.8
20260503005208 43 218 0.0 1.0 0.00 0.01 0.01 67 1017.9
20260503004705 43 216 0.0 1.0 0.00 0.01 0.01 67 1017.8
20260503004203 43 217 0.0 1.0 0.00 0.01 0.01 66 1017.8
20260503003700 44 213 1.0 1.0 0.00 0.01 0.01 66 1017.8
20260503003157 44 219 0.0 1.0 0.00 0.01 0.01 65 1017.9
20260503002653 44 222 1.0 2.0 0.00 0.01 0.01 64 1017.8